N0YWB Weather Reports


time (UTC)temp
F
wind
direction
speed
knots
gust
knots
rain 1hr
in
rain 24hr
in
rain mn
in
humidity
%
barometer
mb
20260504081516 43 77 0.9 1.7 0.00 0.00 0.00 99 1007.0
20260504080518 43 0.0 0.0 0.00 0.00 0.00 99 1007.1
20260504050530 47 263 0.9 1.7 0.00 0.00 0.00 89 1008.8
20260504045533 48 135 0.0 0.9 0.00 0.00 0.00 85 1008.9
20260504044518 49 0.0 0.0 0.00 0.00 0.00 83 1008.9
20260504043520 49 220 0.9 1.7 0.00 0.00 0.00 84 1009.1
20260504042523 49 152 0.9 1.7 0.00 0.00 0.00 84 1009.2
20260504041546 50 0.0 0.0 0.00 0.00 0.00 77 1009.3
20260504040528 51 0.0 0.0 0.00 0.00 0.00 76 1009.3
20260504035525 51 0.0 0.0 0.00 0.00 0.00 74 1009.3
20260504034515 52 0.0 0.0 0.00 0.00 0.00 74 1009.4
20260504033518 53 0.0 0.0 0.00 0.00 0.00 73 1009.5
20260504032541 53 0.0 0.0 0.00 0.00 0.00 73 1009.5
20260504031523 54 0.0 0.0 0.00 0.00 0.00 74 1009.5
20260504030526 54 0.0 0.0 0.00 0.00 0.00 75 1009.5
20260504025549 55 115 0.9 1.7 0.00 0.00 0.00 72 1009.4
20260504024531 56 0.0 1.7 0.00 0.00 0.00 67 1009.3
20260504023537 57 109 1.7 1.7 0.00 0.00 0.00 64 1009.2
20260504022519 58 0.0 0.0 0.00 0.00 0.00 59 1009.1
20260504021542 59 0.0 0.0 0.00 0.00 0.00 57 1009.0
20260504020524 61 0.0 0.0 0.00 0.00 0.00 54 1009.0
20260504015527 62 158 0.0 0.9 0.00 0.00 0.00 56 1009.0
20260504014530 64 0.0 0.0 0.00 0.00 0.00 50 1008.8
20260504013532 65 0.0 0.0 0.00 0.00 0.00 48 1008.9
20260504012517 66 177 0.9 1.7 0.00 0.00 0.00 46 1008.8
20260504011539 67 177 0.9 2.6 0.00 0.00 0.00 45 1008.7
20260504010522 68 141 0.9 2.6 0.00 0.00 0.00 44 1008.6
20260504005525 70 156 1.7 3.5 0.00 0.00 0.00 42 1008.6
20260504004541 71 148 1.7 3.5 0.00 0.00 0.00 41 1008.6
20260504003518 71 153 0.9 2.6 0.00 0.00 0.00 40 1008.6
20260504002532 72 116 2.6 4.3 0.00 0.00 0.00 38 1008.6
20260504001517 73 122 2.6 5.2 0.00 0.00 0.00 38 1008.5
20260504000520 73 129 4.3 7.0 0.00 0.00 0.00 38 1008.4
20260503235522 74 137 2.6 4.3 0.00 0.00 0.00 38 1008.4
20260503234525 74 122 3.5 6.1 0.00 0.00 0.00 36 1008.4
20260503233527 74 124 4.3 7.0 0.00 0.00 0.00 35 1008.3
20260503232550 75 135 7.0 8.7 0.00 0.00 0.00 35 1008.5
20260503231533 76 118 5.2 7.8 0.00 0.00 0.00 34 1008.3
20260503230517 76 134 5.2 7.8 0.00 0.00 0.00 36 1008.3
20260503225540 76 156 5.2 7.0 0.00 0.00 0.00 36 1008.4
20260503224522 0 90 6.1 6.1 0.00 0.00 0.00 1008.5
20260503223525 0 0.0 0.0 0.00 0.00 0.00 1008.4
20260503222548 76 113 5.2 5.2 0.00 0.00 0.00 35 1008.2
20260503221550 77 139 4.3 7.0 0.00 0.00 0.00 36 1008.3
20260503220526 76 127 7.0 9.6 0.00 0.00 0.00 36 1008.2
20260503215517 77 129 6.1 8.7 0.00 0.00 0.00 37 1008.2
20260503214520 77 144 6.1 8.7 0.00 0.00 0.00 38 1008.1
20260503213517 77 137 5.2 7.8 0.00 0.00 0.00 38 1008.2
20260503212525 77 159 3.5 7.0 0.00 0.00 0.00 38 1008.3
20260503211527 77 128 6.1 7.8 0.00 0.00 0.00 38 1008.4
20260503210530 77 142 4.3 7.0 0.00 0.00 0.00 38 1008.4
20260503205532 77 116 5.2 7.8 0.00 0.00 0.00 38 1008.4
20260503204537 78 129 3.5 7.0 0.00 0.00 0.00 40 1008.5
20260503203540 78 92 3.5 5.2 0.00 0.00 0.00 41 1008.6
20260503202522 77 118 4.3 7.0 0.00 0.00 0.00 40 1008.8
20260503201526 77 139 5.2 8.7 0.00 0.00 0.00 40 1008.7
20260503200528 77 90 4.3 7.8 0.00 0.00 0.00 40 1008.6
20260503195531 77 131 5.2 10.4 0.00 0.00 0.00 42 1008.7
20260503194516 77 102 3.5 7.0 0.00 0.00 0.00 42 1009.0
20260503193538 76 145 4.3 7.0 0.00 0.00 0.00 42 1008.9
20260503192521 76 148 5.2 7.8 0.00 0.00 0.00 43 1009.0
20260503191523 76 115 4.3 7.0 0.00 0.00 0.00 45 1009.0
20260503190526 76 149 4.3 6.1 0.00 0.00 0.00 45 1009.0
20260503185522 76 141 6.1 10.4 0.00 0.00 0.00 45 1009.1
20260503184600 75 119 5.2 7.8 0.00 0.00 0.00 46 1009.3
20260503183517 75 154 4.3 8.7 0.00 0.00 0.00 47 1009.3
20260503182611 74 169 5.2 8.7 0.00 0.00 0.00 48 1009.6
20260503181516 74 103 5.2 9.6 0.00 0.00 0.00 49 1009.7
20260503180518 73 100 4.3 7.0 0.00 0.00 0.00 50 1009.9
20260503175521 73 124 4.3 7.0 0.00 0.00 0.00 50 1010.1
20260503174544 72 98 3.5 5.2 0.00 0.00 0.00 50 1010.2
20260503173526 71 113 5.2 7.8 0.00 0.00 0.00 50 1010.3
20260503172529 70 167 6.1 11.3 0.00 0.00 0.00 51 1010.3
20260503171531 70 135 3.5 4.3 0.00 0.00 0.00 53 1010.5
20260503170516 70 98 3.5 5.2 0.00 0.00 0.00 52 1010.6
20260503150529 62 91 6.1 8.7 0.00 0.00 0.00 58 1011.9
20260503130524 53 80 3.5 5.2 0.00 0.00 0.00 67 1013.0
20260503110519 51 89 6.1 7.8 0.00 0.00 0.00 68 1013.9